This demonstration page uses our WeatherBlox Daily Observations layout. Learn more.

Left ArrowRight Arrow

40.97296, -117.73568

Hourly Observations for August 22, 2016

Temp ( °F °C ) Dew Point ( °F °C ) Humidity (%) Winds ( mph kmh ) Pressure ( in mb ) Visibility ( mi km ) Precip ( " mm )
12:56 am 00:56 Clear 64 17.8 26 -3.3 24 24 Calm 29.82 1010 10 16 0.00 0.00
1:56 am 01:56 Clear 62 16.7 23 -5 22 22 ENE 5 7 29.82 1010 10 16 0.00 0.03
2:56 am 02:56 Clear 55 12.8 23 -5 29 29 SSE 6 9 29.83 1010 10 16 0.00 0.00
3:56 am 03:56 Clear 54 12.2 26 -3.3 34 34 Calm 29.84 1010 10 16 0.00 0.00
4:56 am 04:56 Clear 52 11.1 21 -6.1 30 30 SSE 6 9 29.86 1011 10 16 0.00 0.00
5:56 am 05:56 Clear 50 10 23 -5 35 35 SSE 7 11 29.88 1012 10 16 0.00 0.00
6:56 am 06:56 Sunny 53 11.7 25 -3.9 34 34 SSE 3 6 29.89 1012 10 16 0.00 0.00
7:56 am 07:56 Sunny 61 16.1 24 -4.4 24 24 Calm 29.91 1013 10 16 0.00 0.00
8:56 am 08:56 Sunny 73 22.8 27 -2.8 18 18 SE 6 9 29.90 1013 10 16 0.00 0.00
9:56 am 09:56 Sunny 81 27.2 22 -5.6 11 11 W 3 6 29.89 1012 10 16 0.00 0.00
10:56 am 10:56 Sunny 85 29.4 23 -5 10 10 VRB 5 7 29.89 1012 10 16 0.00 0.00
11:56 am 11:56 Sunny 88 31.1 26 -3.3 10 10 W 6 9 29.88 1012 10 16 0.00 0.00
12:56 pm 12:56 Sunny 90 32.2 27 -2.8 10 10 W 9 15 29.86 1011 10 16 0.00 0.00
1:56 pm 13:56 Sunny 90 32.2 27 -2.8 10 10 W 12 19 29.84 1011 10 16 0.00 0.00
2:56 pm 14:56 Sunny 92 33.3 28 -2.2 10 10 WSW 9 15 29.83 1010 10 16 0.00 0.00
3:56 pm 15:56 Sunny 90 32.2 27 -2.8 10 10 W 18 30 29.82 1010 10 16 0.00 0.00
4:56 pm 16:56 Sunny 88 31.1 28 -2.2 11 11 W 22 35 29.83 1010 8 13 0.00 0.00
5:56 pm 17:56 Sunny 85 29.4 29 -1.7 13 13 WSW 20 31 29.84 1011 10 16 0.00 0.00
6:56 pm 18:56 Sunny 83 28.3 31 -0.6 15 15 SW 21 33 29.85 1011 10 16 0.00 0.00
7:56 pm 19:56 Clear 81 27.2 31 -0.6 16 16 SW 14 22 29.85 1011 10 16 0.00 0.00
8:56 pm 20:56 Clear 80 26.7 32 0 17 17 WSW 9 15 29.85 1011 10 16 0.00 0.00
9:56 pm 21:56 Hazy 76 24.4 35 1.7 23 23 SW 8 13 29.86 1011 4 6 0.00 0.00
10:56 pm 22:56 Clear 76 24.4 33 0.6 21 21 W 12 19 29.85 1011 10 16 0.00 0.00
11:56 pm 23:56 Clear 72 22.2 33 0.6 24 24 Calm 29.86 1011 10 16 0.00 0.00

Powered by AerisWeather